Terminal Aerodrome Forecast
Issued by NWS Quad Cities IA IL

Home | Current Version | Previous Version | Text Only | Print | Product List | Glossary On
Versions: 1 2 3 4 5 6 7 8 9 10 11 12 13 14 15 16 17 18 19 20 21 22 23 24 25
000
FTUS43 KDVN 231600 AAA
TAFMLI
TAF AMD
KMLI 231634Z 2317/2412 23010G20KT P6SM SCT020 OVC025
     FM240000 24006KT 6SM BR OVC020
     FM240900 33010KT 4SM BR OVC009=

USA.gov is the U.S. government's official web portal to all federal, state and local government web resources and services.